This is the latest recevied weather packets stored in our database for station/object KO4LCK. If no packets are shown the sender has not sent any weather packets the latest 10 day(s).
| Time | Temp. | Humidity | Pressure | Rain* | Wind** | Luminosity | Snow |
|---|---|---|---|---|---|---|---|
| 1777981495 | 11.11° C | 91% | 1015.7 hPa | 0 mm | - | 44 W/m² | - |
| 1777981192 | 10.56° C | 92% | 1015.5 hPa | 0 mm | - | 41 W/m² | - |
| 1777980888 | 10.56° C | 92% | 1015.5 hPa | 0 mm | - | 34 W/m² | - |
| 1777980584 | 10° C | 93% | 1015.4 hPa | 0 mm | - | 30 W/m² | - |
| 1777980281 | 10° C | 93% | 1015.4 hPa | 0 mm | - | 27 W/m² | - |
| 1777979978 | 10° C | 93% | 1015.1 hPa | 0 mm | - | 23 W/m² | - |
| 1777979672 | 9.44° C | 93% | 1015 hPa | 0 mm | - | 20 W/m² | - |
| 1777979369 | 9.44° C | 92% | 1015 hPa | 0 mm | - | 18 W/m² | - |
| 1777979065 | 9.44° C | 92% | 1015 hPa | 0 mm | - | 13 W/m² | - |
| 1777978762 | 8.89° C | 92% | 1014.8 hPa | 0 mm | - | 9 W/m² | - |
| 1777978459 | 8.89° C | 92% | 1014.9 hPa | 0 mm | - | 6 W/m² | - |
| 1777978155 | 8.89° C | 92% | 1014.8 hPa | 0 mm | - | 3 W/m² | - |
| 1777977852 | 8.89° C | 92% | 1014.9 hPa | 0 mm | - | 1 W/m² | - |
| 1777977548 | 8.89° C | 91% | 1014.8 hPa | 0 mm | - | 1 W/m² | - |
| 1777977246 | 8.89° C | 92% | 1015 hPa | 0 mm | - | 0 W/m² | - |
| 1777976943 | 8.89° C | 91% | 1015.1 hPa | 0 mm | - | 0 W/m² | - |
| 1777976640 | 8.89° C | 91% | 1015 hPa | 0 mm | - | 0 W/m² | - |
| 1777976336 | 8.89° C | 92% | 1014.9 hPa | 0 mm | - | 0 W/m² | - |
| 1777976031 | 8.89° C | 92% | 1014.8 hPa | 0 mm | - | 0 W/m² | - |
| 1777975727 | 8.89° C | 91% | 1014.8 hPa | 0 mm | - | 0 W/m² | - |
| 1777975424 | 8.89° C | 91% | 1014.7 hPa | 0 mm | - | 0 W/m² | - |
| 1777975120 | 8.89° C | 91% | 1014.7 hPa | 0 mm | - | 0 W/m² | - |
| 1777974817 | 8.89° C | 91% | 1014.9 hPa | 0 mm | - | 0 W/m² | - |
| 1777974513 | 9.44° C | 90% | 1014.6 hPa | 0 mm | - | 0 W/m² | - |
| 1777974210 | 9.44° C | 90% | 1014.9 hPa | 0 mm | - | 0 W/m² | - |
* Rain latest hour (hover to see other rain measurements)
** Current wind speed in m/s (hover to see current wind gust speed)